This is the latest recevied weather packets stored in our database for station/object AA0PB. If no packets are shown the sender has not sent any weather packets the latest 10 day(s).
| Time | Temp. | Humidity | Pressure | Rain* | Wind** | Luminosity | Snow |
|---|---|---|---|---|---|---|---|
| 1777568284 | 18.33° C | 59% | 1019.4 hPa | 0 mm | - | 340 W/m² | - |
| 1777567980 | 18.33° C | 59% | 1019.1 hPa | 0 mm | - | 355 W/m² | - |
| 1777567676 | 18.89° C | 60% | 1019.5 hPa | 0 mm | - | 338 W/m² | - |
| 1777567374 | 18.33° C | 60% | 1019.3 hPa | 0 mm | - | 329 W/m² | - |
| 1777567072 | 18.89° C | 61% | 1019.2 hPa | 0 mm | - | 294 W/m² | - |
| 1777566770 | 18.33° C | 62% | 1019.2 hPa | 0 mm | - | 343 W/m² | - |
| 1777566467 | 18.33° C | 63% | 1019.3 hPa | 0 mm | - | 360 W/m² | - |
| 1777566164 | 17.78° C | 61% | 1019.4 hPa | 0 mm | - | 209 W/m² | - |
| 1777565860 | 17.22° C | 64% | 1019.5 hPa | 0 mm | - | 345 W/m² | - |
| 1777565556 | 17.22° C | 65% | 1019.2 hPa | 0 mm | - | 336 W/m² | - |
| 1777565253 | 17.22° C | 65% | 1019.4 hPa | 0 mm | - | 283 W/m² | - |
| 1777564949 | 16.67° C | 66% | 1019.4 hPa | 0 mm | - | 243 W/m² | - |
| 1777564645 | 16.11° C | 66% | 1019.5 hPa | 0 mm | - | 232 W/m² | - |
| 1777564340 | 16.11° C | 66% | 1019.4 hPa | 0 mm | - | 225 W/m² | - |
| 1777564036 | 16.11° C | 68% | 1019.5 hPa | 0 mm | - | 253 W/m² | - |
| 1777563732 | 15.56° C | 68% | 1019.6 hPa | 0 mm | - | 144 W/m² | - |
| 1777563429 | 15.56° C | 69% | 1019.7 hPa | 0 mm | - | 194 W/m² | - |
| 1777563123 | 15.56° C | 70% | 1019.7 hPa | 0 mm | - | 120 W/m² | - |
| 1777562819 | 16.11° C | 66% | 1019.7 hPa | 0 mm | - | 230 W/m² | - |
| 1777562517 | 15.56° C | 69% | 1019.8 hPa | 0 mm | - | 112 W/m² | - |
| 1777562214 | 15° C | 69% | 1019.7 hPa | 0 mm | - | 215 W/m² | - |
| 1777561912 | 15.56° C | 70% | 1020.1 hPa | 0 mm | - | 95 W/m² | - |
| 1777561609 | 14.44° C | 74% | 1019.8 hPa | 0 mm | - | 88 W/m² | - |
| 1777561305 | 13.89° C | 75% | 1019.9 hPa | 0 mm | - | 83 W/m² | - |
| 1777561005 | 13.89° C | 75% | 1019.9 hPa | 0 mm | - | 86 W/m² | - |
* Rain latest hour (hover to see other rain measurements)
** Current wind speed in m/s (hover to see current wind gust speed)